Location: Newark
(35.8967°N, 14.4625°E)
Time: 07:23:50
(UTC+00:00)

N. Korean satellite - Pass Details

Date: 18 November 2019
Orbit: 456 x 506 km, 97.2° (Epoch: 06 December)

Event Time Altitude Azimuth Distance (km) Brightness Sun altitude
Rises 05:01:05 0° 8° (N) 2,609 10.2 -8.4°
Reaches altitude 10° 05:03:11 10° 5° (N) 1,716 9.2 -8.0°
Maximum altitude 05:06:51 65° 283° (WNW) 551 6.6 -7.3°
Drops below altitude 10° 05:10:27 10° 202° (SSW) 1,682 9.3 -6.6°
Sets 05:12:30 0° 199° (SSW) 2,551 10.2 -6.2°
